{"data":{"norad_id":55464,"intl_designator":"2023-015R","name":"STARLINK-5676","alt_names":[],"object_type":"PAYLOAD","status":"ACTIVE","operator":null,"country":"US","launch_date":"2023-02-02","launch_site_code":"AFETR","launch_vehicle":null,"mission":null,"orbit_class":"UNKNOWN","rcs_meters":null,"size_class":null,"mass_kg":null,"dimensions":null,"purposes":["comms"],"wikipedia_slug":null,"has_3d_model":false,"image_url":null,"decayed_at":null,"tle_current":{"epoch":"2026-05-24T17:49:10.774848Z","epoch_age_seconds":104070,"freshness":"FRESH","line1":"1 55464U 23015R   26144.74248582 -.00000652  00000+0 -14159-4 0  9990","line2":"2 55464  43.0020 259.1852 0001285 269.7449  90.3255 15.27571009182354","mean_motion":15.27571009,"eccentricity":0.0001285,"inclination_deg":43.002,"raan_deg":259.1852,"arg_perigee_deg":269.7449,"mean_anomaly_deg":90.3255,"bstar":-1.4159e-5,"rev_number":18235,"period_min":94.267303550273,"perigee_km":482.19435258733,"apogee_km":483.95768433307,"semimajor_km":6861.2130184602,"source":"CELESTRAK","updated_at":"2026-05-25T13:38:17.805492Z"}}}